Regional Weather Roundup
Issued by NWS

Home | Current Version | Previous Version | Graphics & Text | Print | Product List | Glossary On
Versions: 1 2 3 4 5 6 7 8 9 10 11 12 13 14 15 16 17 18 19 20 21 22 23 24 25 26 27 28 29 30 31 32 33 34 35 36 37 38 39 40 41 42 43 44 45 46 47 48 49 50
000
ASUS43 KFSD 281210
RWRSD

WEATHER ROUNDUP FOR SOUTH DAKOTA
NATIONAL WEATHER SERVICE SIOUX FALLS SD
700 AM CDT SUN AUG 28 2016

NOTE: "FAIR" INDICATES FEW OR NO CLOUDS BELOW 12,000 FEET WITH NO
SIGNIFICANT WEATHER AND/OR OBSTRUCTIONS TO VISIBILITY.


SDZ001>005-009-010-012>017-281300-
NORTHWEST AND NORTH CENTRAL SOUTH DAKOTA

CITY           SKY/WX    TMP DP  RH WIND       PRES   REMARKS
BUFFALO          N/A     56  54  93 NW5       29.85R
FAITH            N/A     60  55  83 S16       29.89R
MOBRIDGE       CLEAR     68  61  78 SE15      29.88R
$$

SDZ012>016-024>037-041>051-057-063-072>074-281300-
SOUTHWEST AND SOUTH CENTRAL SOUTH DAKOTA

CITY           SKY/WX    TMP DP  RH WIND       PRES   REMARKS
RAPID CTY ARPT CLEAR     50  47  89 CALM      29.93S
PIERRE         CLEAR     63  61  93 SE8       29.91R
CUSTER         CLEAR     54  33  45 NW5       30.10R
ELLSWORTH AFB  CLEAR     58  51  78 W5        29.93R
PHILIP         CLEAR     61  60  97 SE7       29.91R
PINE RIDGE     CLEAR     64  60  87 SW15      29.98R
WINNER         FAIR      71  65  81 SW15      29.96S
$$

SDZ004>011-016>023-039-040-281300-
NORTHEAST SOUTH DAKOTA

CITY           SKY/WX    TMP DP  RH WIND       PRES   REMARKS
ABERDEEN       CLEAR     66  63  90 SE13      29.97R
WATERTOWN      PTCLDY    66  59  78 SE10      30.05R
BROOKINGS      CLEAR     63  62  97 SE8       30.07R
SISSETON         N/A     60  58  92 SE6       30.02R
$$

SDZ017-020-022-023-036>040-048>070-281300-
SOUTHEAST SOUTH DAKOTA

CITY           SKY/WX    TMP DP  RH WIND       PRES   REMARKS
SIOUX FALLS    PTCLDY    65  64  97 E5        30.08R
HURON          CLEAR     65  63  93 SE12      29.98R
CHAMBERLAIN    CLEAR     70  67  89 S9        29.97R
MITCHELL       CLEAR     66  64  93 SE9       30.01R
YANKTON        CLEAR     64  61  88 SE5       30.03R
$$

ABBREVIATIONS USED IN REMARKS
   TC - TEMPERATURE IN CELSIUS
  WCI - WIND CHILL INDEX
   HX - HEAT INDEX
  VSB - VISIBILITY





USA.gov is the U.S. government's official web portal to all federal, state and local government web resources and services.